Time,TemperatureF,DewpointF,PressureIn,WindDirection,WindDirectionDegrees,WindSpeedMPH,WindSpeedGustMPH,Humidity,HourlyPrecipIn,Conditions,Clouds,dailyrainin,SolarRadiationWatts/m^2,SoftwareType,DateUTC
2013-07-21 00:01:00,79.1,70.9,29.82,WNW,291,0.0,0.0,76,0.00,,---,0.00,0.00,VWS V14.01,2013-07-21 04:01:00,
2013-07-21 00:06:00,79.3,71.1,29.82,NNW,328,0.0,0.0,76,0.00,,---,0.00,0.00,VWS V14.01,2013-07-21 04:06:00,
2013-07-21 00:11:00,79.3,71.5,29.81,NNW,335,0.0,0.0,77,0.00,,---,0.00,0.00,VWS V14.01,2013-07-21 04:11:00,
2013-07-21 00:16:00,79.2,71.4,29.81,North,355,0.0,0.0,77,0.00,,---,0.00,0.00,VWS V14.01,2013-07-21 04:16:00,
2013-07-21 00:21:00,79.1,71.3,29.81,NNE,15,0.0,0.0,77,0.00,,---,0.00,0.00,VWS V14.01,2013-07-21 04:21:00,
2013-07-21 00:26:00,79.0,71.2,29.81,NNE,19,0.0,0.0,77,0.00,,---,0.00,0.00,VWS V14.01,2013-07-21 04:26:00,
2013-07-21 00:31:00,78.9,71.1,29.81,NNE,19,0.0,0.0,77,0.00,,---,0.00,0.00,VWS V14.01,2013-07-21 04:31:00,
2013-07-21 00:36:00,79.1,71.3,29.82,NNE,19,0.0,0.0,77,0.00,,---,0.00,0.00,VWS V14.01,2013-07-21 04:36:00,
2013-07-21 00:41:00,78.9,71.1,29.82,NE,37,0.0,0.0,77,0.00,,---,0.00,0.00,VWS V14.01,2013-07-21 04:41:00,
2013-07-21 00:46:00,78.4,71.0,29.82,NE,37,0.0,0.0,78,0.00,,---,0.00,0.00,VWS V14.01,2013-07-21 04:46:00,
2013-07-21 00:51:00,78.2,71.2,29.83,SW,235,0.0,0.0,79,0.00,,---,0.00,0.00,VWS V14.01,2013-07-21 04:51:00,
2013-07-21 00:56:00,78.5,71.4,29.83,West,261,0.0,0.0,79,0.00,,---,0.00,0.00,VWS V14.01,2013-07-21 04:56:00,
2013-07-21 01:01:00,78.7,71.6,29.83,NW,309,0.0,0.0,79,0.00,,---,0.00,0.00,VWS V14.01,2013-07-21 05:01:00,
2013-07-21 01:06:00,77.9,70.9,29.83,SW,219,0.0,0.0,79,0.00,,---,0.00,0.00,VWS V14.01,2013-07-21 05:06:00,
2013-07-21 01:11:00,78.0,71.0,29.82,SW,219,0.0,0.0,79,0.00,,---,0.00,0.00,VWS V14.01,2013-07-21 05:11:00,
2013-07-21 01:16:00,77.8,70.8,29.83,SW,219,0.0,0.0,79,0.00,,---,0.00,0.00,VWS V14.01,2013-07-21 05:16:00,
2013-07-21 01:21:00,77.8,71.1,29.83,SW,234,0.0,0.0,80,0.00,,---,0.00,0.00,VWS V14.01,2013-07-21 05:21:00,
2013-07-21 01:26:00,77.6,71.3,29.83,SW,215,0.0,0.0,81,0.00,,---,0.00,0.00,VWS V14.01,2013-07-21 05:26:00,
2013-07-21 01:31:00,77.4,71.5,29.83,SW,225,0.0,0.0,82,0.00,,---,0.00,0.00,VWS V14.01,2013-07-21 05:31:00,
2013-07-21 01:36:00,77.1,71.5,29.83,SW,225,0.0,0.0,83,0.00,,---,0.00,0.00,VWS V14.01,2013-07-21 05:36:00,
2013-07-21 01:41:00,76.7,71.5,29.83,SW,225,0.0,0.0,84,0.00,,---,0.00,0.00,VWS V14.01,2013-07-21 05:41:00,
2013-07-21 01:46:00,76.6,71.4,29.83,SSW,209,0.0,0.0,84,0.00,,---,0.00,0.00,VWS V14.01,2013-07-21 05:46:00,
2013-07-21 01:51:00,76.6,71.4,29.83,SSW,209,0.0,0.0,84,0.00,,---,0.00,0.00,VWS V14.01,2013-07-21 05:51:00,
2013-07-21 01:56:00,77.1,71.5,29.83,SSW,209,0.0,0.0,83,0.00,,---,0.00,0.00,VWS V14.01,2013-07-21 05:56:00,
2013-07-21 02:01:00,77.5,71.6,29.83,SSW,209,0.0,0.0,82,0.00,,---,0.00,0.00,VWS V14.01,2013-07-21 06:01:00,
2013-07-21 02:06:00,77.7,71.4,29.83,NNE,28,0.0,0.0,81,0.00,,---,0.00,0.00,VWS V14.01,2013-07-21 06:06:00,
2013-07-21 02:11:00,77.8,71.5,29.83,North,5,0.0,0.0,81,0.00,,---,0.00,0.00,VWS V14.01,2013-07-21 06:11:00,
2013-07-21 02:16:00,77.5,71.2,29.83,NW,317,0.0,0.0,81,0.00,,---,0.00,0.00,VWS V14.01,2013-07-21 06:16:00,
2013-07-21 02:21:00,77.3,70.7,29.83,NW,317,0.0,0.0,80,0.00,,---,0.00,0.00,VWS V14.01,2013-07-21 06:21:00,
2013-07-21 02:26:00,77.1,70.8,29.84,NW,317,0.0,0.0,81,0.00,,---,0.00,0.00,VWS V14.01,2013-07-21 06:26:00,
2013-07-21 02:31:00,77.2,70.9,29.83,NW,317,0.0,0.0,81,0.00,,---,0.00,0.00,VWS V14.01,2013-07-21 06:31:00,
2013-07-21 02:36:00,77.5,71.2,29.83,NW,317,0.0,0.0,81,0.00,,---,0.00,0.00,VWS V14.01,2013-07-21 06:36:00,
2013-07-21 02:41:00,77.6,71.3,29.83,NW,317,0.0,0.0,81,0.00,,---,0.00,0.00,VWS V14.01,2013-07-21 06:41:00,
2013-07-21 02:46:00,77.2,71.3,29.83,NW,317,0.0,0.0,82,0.00,,---,0.00,0.00,VWS V14.01,2013-07-21 06:46:00,
2013-07-21 02:51:00,77.3,71.4,29.83,NW,317,0.0,0.0,82,0.00,,---,0.00,0.00,VWS V14.01,2013-07-21 06:51:00,
2013-07-21 02:56:00,77.3,71.4,29.82,NW,317,0.0,0.0,82,0.00,,---,0.00,0.00,VWS V14.01,2013-07-21 06:56:00,
2013-07-21 03:01:00,76.8,71.6,29.82,NW,317,0.0,0.0,84,0.00,,---,0.00,0.00,VWS V14.01,2013-07-21 07:01:00,
2013-07-21 03:06:00,76.5,71.3,29.82,NW,317,0.0,0.0,84,0.00,,---,0.00,0.00,VWS V14.01,2013-07-21 07:06:00,
2013-07-21 03:11:00,76.4,71.6,29.83,NW,317,0.0,0.0,85,0.00,,---,0.00,0.00,VWS V14.01,2013-07-21 07:11:00,
2013-07-21 03:16:00,76.4,71.6,29.82,NW,317,0.0,0.0,85,0.00,,---,0.00,0.00,VWS V14.01,2013-07-21 07:16:00,
2013-07-21 03:21:00,76.3,71.8,29.82,WSW,250,0.0,0.0,86,0.00,,---,0.00,0.00,VWS V14.01,2013-07-21 07:21:00,
2013-07-21 03:26:00,76.2,71.7,29.82,SW,219,0.0,0.0,86,0.00,,---,0.00,0.00,VWS V14.01,2013-07-21 07:26:00,
2013-07-21 03:31:00,76.3,71.8,29.82,SW,221,0.0,0.0,86,0.00,,---,0.00,0.00,VWS V14.01,2013-07-21 07:31:00,
2013-07-21 03:36:00,76.5,71.7,29.82,SW,221,0.0,0.0,85,0.00,,---,0.00,0.00,VWS V14.01,2013-07-21 07:36:00,
2013-07-21 03:41:00,76.6,71.4,29.82,SW,221,0.0,0.0,84,0.00,,---,0.00,0.00,VWS V14.01,2013-07-21 07:41:00,
2013-07-21 03:46:00,76.5,71.7,29.82,SW,221,0.0,0.0,85,0.00,,---,0.00,0.00,VWS V14.01,2013-07-21 07:46:00,
2013-07-21 03:51:00,76.6,71.4,29.82,SW,221,0.0,0.0,84,0.00,,---,0.00,0.00,VWS V14.01,2013-07-21 07:51:00,
2013-07-21 03:56:00,76.4,71.2,29.82,SW,221,0.0,0.0,84,0.00,,---,0.00,0.00,VWS V14.01,2013-07-21 07:56:00,
2013-07-21 04:01:00,76.6,71.4,29.82,SW,221,0.0,0.0,84,0.00,,---,0.00,0.00,VWS V14.01,2013-07-21 08:01:00,
2013-07-21 04:06:00,76.6,71.4,29.83,SW,221,0.0,0.0,84,0.00,,---,0.00,0.00,VWS V14.01,2013-07-21 08:06:00,
2013-07-21 04:11:00,76.1,71.3,29.82,SW,221,0.0,0.0,85,0.00,,---,0.00,0.00,VWS V14.01,2013-07-21 08:11:00,
2013-07-21 04:16:00,76.0,71.2,29.83,SW,221,0.0,0.0,85,0.00,,---,0.00,0.00,VWS V14.01,2013-07-21 08:16:00,
2013-07-21 04:21:00,75.8,71.3,29.83,SW,221,0.0,0.0,86,0.00,,---,0.00,0.00,VWS V14.01,2013-07-21 08:21:00,
2013-07-21 04:26:00,75.8,71.3,29.83,SW,221,0.0,0.0,86,0.00,,---,0.00,0.00,VWS V14.01,2013-07-21 08:26:00,
2013-07-21 04:31:00,76.0,71.2,29.83,SW,221,0.0,0.0,85,0.00,,---,0.00,0.00,VWS V14.01,2013-07-21 08:31:00,
2013-07-21 04:36:00,75.7,71.2,29.83,SW,221,0.0,0.0,86,0.00,,---,0.00,0.00,VWS V14.01,2013-07-21 08:36:00,
2013-07-21 04:41:00,75.6,71.1,29.83,SW,221,0.0,0.0,86,0.00,,---,0.00,0.00,VWS V14.01,2013-07-21 08:41:00,
2013-07-21 04:46:00,75.8,71.3,29.83,SW,221,0.0,0.0,86,0.00,,---,0.00,0.00,VWS V14.01,2013-07-21 08:46:00,
2013-07-21 04:51:00,75.6,71.1,29.84,SW,221,0.0,0.0,86,0.00,,---,0.00,0.00,VWS V14.01,2013-07-21 08:51:00,
2013-07-21 04:56:00,75.7,71.2,29.83,SW,221,0.0,0.0,86,0.00,,---,0.00,0.00,VWS V14.01,2013-07-21 08:56:00,
2013-07-21 05:01:00,76.1,71.3,29.84,SW,221,0.0,0.0,85,0.00,,---,0.00,0.00,VWS V14.01,2013-07-21 09:01:00,
2013-07-21 05:06:00,76.1,71.3,29.84,SW,221,0.0,0.0,85,0.00,,---,0.00,0.00,VWS V14.01,2013-07-21 09:06:00,
2013-07-21 05:11:00,76.4,71.2,29.84,SW,221,0.0,0.0,84,0.00,,---,0.00,0.00,VWS V14.01,2013-07-21 09:11:00,
2013-07-21 05:16:00,76.5,71.0,29.84,SW,221,0.0,0.0,83,0.00,,---,0.00,0.00,VWS V14.01,2013-07-21 09:16:00,
2013-07-21 05:21:00,76.4,70.9,29.84,SW,221,0.0,0.0,83,0.00,,---,0.00,0.00,VWS V14.01,2013-07-21 09:21:00,
2013-07-21 05:26:00,76.4,71.2,29.84,SW,221,0.0,0.0,84,0.00,,---,0.00,0.00,VWS V14.01,2013-07-21 09:26:00,
2013-07-21 05:31:00,76.2,71.0,29.84,SW,221,0.0,0.0,84,0.00,,---,0.00,0.00,VWS V14.01,2013-07-21 09:31:00,
2013-07-21 05:36:00,75.6,70.8,29.84,SW,221,0.0,0.0,85,0.00,,---,0.00,0.00,VWS V14.01,2013-07-21 09:36:00,
2013-07-21 05:41:00,75.5,71.0,29.85,WSW,247,0.0,0.0,86,0.00,,---,0.00,0.00,VWS V14.01,2013-07-21 09:41:00,
2013-07-21 05:46:00,75.5,70.7,29.85,NW,310,0.0,0.0,85,0.00,,---,0.00,0.00,VWS V14.01,2013-07-21 09:46:00,
2013-07-21 05:51:00,75.3,70.8,29.85,NW,310,0.0,0.0,86,0.00,,---,0.00,0.00,VWS V14.01,2013-07-21 09:51:00,
2013-07-21 05:56:00,75.2,70.7,29.85,NW,310,0.0,0.0,86,0.00,,---,0.00,5.00,VWS V14.01,2013-07-21 09:56:00,
2013-07-21 06:01:00,75.5,70.7,29.85,NW,310,0.0,0.0,85,0.00,,---,0.00,7.00,VWS V14.01,2013-07-21 10:01:00,
2013-07-21 06:06:00,75.9,71.1,29.85,NW,310,0.0,0.0,85,0.00,,---,0.00,9.00,VWS V14.01,2013-07-21 10:06:00,
2013-07-21 06:11:00,75.7,70.9,29.85,NW,310,0.0,0.0,85,0.00,,---,0.00,19.00,VWS V14.01,2013-07-21 10:11:00,
2013-07-21 06:16:00,75.5,71.0,29.85,NW,310,0.0,0.0,86,0.00,,---,0.00,37.00,VWS V14.01,2013-07-21 10:16:00,
2013-07-21 06:21:00,75.3,70.8,29.85,NW,310,0.0,0.0,86,0.00,,---,0.00,42.00,VWS V14.01,2013-07-21 10:21:00,
2013-07-21 06:26:00,75.6,71.1,29.85,NW,310,0.0,0.0,86,0.00,,---,0.00,46.00,VWS V14.01,2013-07-21 10:26:00,
2013-07-21 06:31:00,76.0,70.8,29.85,NW,310,0.0,0.0,84,0.00,,---,0.00,40.00,VWS V14.01,2013-07-21 10:31:00,
2013-07-21 06:36:00,76.0,70.8,29.85,North,355,0.0,0.0,84,0.00,,---,0.00,47.00,VWS V14.01,2013-07-21 10:36:00,
2013-07-21 06:41:00,76.3,70.8,29.85,NNE,14,0.0,0.0,83,0.00,,---,0.00,56.00,VWS V14.01,2013-07-21 10:41:00,
2013-07-21 06:46:00,76.6,70.7,29.85,NNE,33,0.0,0.0,82,0.00,,---,0.00,65.00,VWS V14.01,2013-07-21 10:46:00,
2013-07-21 06:51:00,76.9,70.3,29.86,NNE,29,0.0,0.0,80,0.00,,---,0.00,111.00,VWS V14.01,2013-07-21 10:51:00,
2013-07-21 06:56:00,77.2,69.8,29.86,NE,41,0.0,0.0,78,0.00,,---,0.00,130.00,VWS V14.01,2013-07-21 10:56:00,
2013-07-21 07:01:00,77.3,69.5,29.86,North,10,0.0,0.0,77,0.00,,---,0.00,120.00,VWS V14.01,2013-07-21 11:01:00,
2013-07-21 07:06:00,77.4,69.6,29.86,North,9,0.0,0.0,77,0.00,,---,0.00,105.00,VWS V14.01,2013-07-21 11:06:00,
2013-07-21 07:11:00,77.5,69.7,29.87,NNW,348,0.0,0.0,77,0.00,,---,0.00,67.00,VWS V14.01,2013-07-21 11:11:00,
2013-07-21 07:16:00,77.4,69.6,29.87,NNE,17,0.0,0.0,77,0.00,,---,0.00,51.00,VWS V14.01,2013-07-21 11:16:00,
2013-07-21 07:21:00,77.4,69.2,29.87,NNE,28,0.0,0.0,76,0.00,,---,0.00,56.00,VWS V14.01,2013-07-21 11:21:00,
2013-07-21 07:26:00,77.3,69.2,29.87,NNE,32,0.0,0.0,76,0.00,,---,0.00,74.00,VWS V14.01,2013-07-21 11:26:00,
2013-07-21 07:31:00,77.2,69.4,29.87,North,9,0.0,0.0,77,0.00,,---,0.00,91.00,VWS V14.01,2013-07-21 11:31:00,
2013-07-21 07:36:00,77.3,69.2,29.88,NE,45,0.0,0.0,76,0.00,,---,0.00,107.00,VWS V14.01,2013-07-21 11:36:00,
2013-07-21 07:41:00,77.5,69.0,29.88,NNE,27,0.0,0.0,75,0.00,,---,0.00,132.00,VWS V14.01,2013-07-21 11:41:00,
2013-07-21 07:46:00,77.6,68.7,29.88,North,9,0.0,0.0,74,0.00,,---,0.00,107.00,VWS V14.01,2013-07-21 11:46:00,
2013-07-21 07:51:00,77.6,68.3,29.88,NE,36,0.0,0.0,73,0.00,,---,0.00,107.00,VWS V14.01,2013-07-21 11:51:00,
2013-07-21 07:56:00,77.8,68.1,29.88,NE,42,0.0,0.0,72,0.00,,---,0.00,121.00,VWS V14.01,2013-07-21 11:56:00,
2013-07-21 08:01:00,78.0,68.2,29.88,NNE,26,0.0,0.0,72,0.00,,---,0.00,135.00,VWS V14.01,2013-07-21 12:01:00,
2013-07-21 08:06:00,78.2,68.4,29.88,ENE,58,0.0,0.0,72,0.00,,---,0.00,142.00,VWS V14.01,2013-07-21 12:06:00,
2013-07-21 08:11:00,78.1,67.9,29.88,NNE,33,0.0,0.0,71,0.00,,---,0.00,135.00,VWS V14.01,2013-07-21 12:11:00,
2013-07-21 08:16:00,78.3,67.7,29.88,NNE,20,0.0,0.0,70,0.00,,---,0.00,137.00,VWS V14.01,2013-07-21 12:16:00,
2013-07-21 08:21:00,78.5,67.9,29.88,North,5,0.0,0.0,70,0.00,,---,0.00,183.00,VWS V14.01,2013-07-21 12:21:00,
2013-07-21 08:26:00,78.8,68.2,29.88,NNE,27,0.0,0.0,70,0.00,,---,0.00,121.00,VWS V14.01,2013-07-21 12:26:00,
2013-07-21 08:31:00,78.8,67.8,29.89,NNE,19,0.0,0.0,69,0.00,,---,0.00,285.00,VWS V14.01,2013-07-21 12:31:00,
2013-07-21 08:36:00,79.4,68.3,29.89,ENE,70,0.0,0.0,69,0.00,,---,0.00,455.00,VWS V14.01,2013-07-21 12:36:00,
2013-07-21 08:41:00,80.1,68.2,29.89,NE,43,0.0,0.0,67,0.00,,---,0.00,490.00,VWS V14.01,2013-07-21 12:41:00,
2013-07-21 08:46:00,80.1,68.2,29.89,NE,42,0.0,0.0,67,0.00,,---,0.00,265.00,VWS V14.01,2013-07-21 12:46:00,
2013-07-21 08:51:00,80.4,67.6,29.90,NNE,24,0.0,0.0,65,0.00,,---,0.00,258.00,VWS V14.01,2013-07-21 12:51:00,
2013-07-21 08:56:00,80.3,67.0,29.90,NE,38,0.0,0.0,64,0.00,,---,0.00,258.00,VWS V14.01,2013-07-21 12:56:00,
2013-07-21 09:01:00,80.8,66.1,29.90,NE,36,0.0,0.0,61,0.00,,---,0.00,229.00,VWS V14.01,2013-07-21 13:01:00,
2013-07-21 09:06:00,81.1,65.9,29.90,NNE,18,0.0,0.0,60,0.00,,---,0.00,301.00,VWS V14.01,2013-07-21 13:06:00,
2013-07-21 09:11:00,81.7,66.5,29.90,NE,49,0.0,0.0,60,0.00,,---,0.00,652.00,VWS V14.01,2013-07-21 13:11:00,
2013-07-21 09:16:00,82.6,66.8,29.90,NW,322,0.0,0.0,59,0.00,,---,0.00,722.00,VWS V14.01,2013-07-21 13:16:00,
2013-07-21 09:21:00,83.0,65.7,29.90,NNE,33,0.0,0.0,56,0.00,,---,0.00,311.00,VWS V14.01,2013-07-21 13:21:00,
2013-07-21 09:25:00,82.2,66.9,29.90,NNE,12,0.0,0.0,60,0.00,,---,0.00,260.00,VWS V14.01,2013-07-21 13:25:00,
2013-07-21 09:30:00,81.5,66.3,29.90,NE,50,0.0,0.0,60,0.00,,---,0.00,302.00,VWS V14.01,2013-07-21 13:30:00,
2013-07-21 09:35:00,81.4,66.7,29.90,NNE,24,0.0,0.0,61,0.00,,---,0.00,341.00,VWS V14.01,2013-07-21 13:35:00,
2013-07-21 09:40:00,81.8,67.1,29.90,NNW,338,0.0,0.0,61,0.00,,---,0.00,406.00,VWS V14.01,2013-07-21 13:40:00,
2013-07-21 09:45:00,82.2,66.9,29.89,NNW,339,0.0,0.0,60,0.00,,---,0.00,378.00,VWS V14.01,2013-07-21 13:45:00,
2013-07-21 09:50:00,81.9,66.7,29.89,NNE,26,0.0,0.0,60,0.00,,---,0.00,322.00,VWS V14.01,2013-07-21 13:50:00,
2013-07-21 09:55:00,81.5,66.3,29.89,NE,41,0.0,0.0,60,0.00,,---,0.00,367.00,VWS V14.01,2013-07-21 13:55:00,
2013-07-21 10:00:00,81.4,66.2,29.89,NNE,26,0.0,0.0,60,0.00,,---,0.00,425.00,VWS V14.01,2013-07-21 14:00:00,
2013-07-21 10:05:00,81.7,66.5,29.90,NNE,14,0.0,0.0,60,0.00,,---,0.00,316.00,VWS V14.01,2013-07-21 14:05:00,
2013-07-21 10:10:00,81.9,65.7,29.90,ENE,74,0.0,0.0,58,0.00,,---,0.00,775.00,VWS V14.01,2013-07-21 14:10:00,
2013-07-21 10:15:00,82.1,65.4,29.90,ENE,62,0.0,0.0,57,0.00,,---,0.00,468.00,VWS V14.01,2013-07-21 14:15:00,
2013-07-21 10:20:00,82.5,65.8,29.90,North,11,0.0,0.0,57,0.00,,---,0.00,413.00,VWS V14.01,2013-07-21 14:20:00,
2013-07-21 10:25:00,82.9,65.6,29.90,ENE,74,0.0,0.0,56,0.00,,---,0.00,410.00,VWS V14.01,2013-07-21 14:25:00,
2013-07-21 10:30:00,83.0,65.7,29.91,ESE,114,0.0,0.0,56,0.00,,---,0.00,485.00,VWS V14.01,2013-07-21 14:30:00,
2013-07-21 10:35:00,82.0,65.3,29.90,North,9,0.0,0.0,57,0.00,,---,0.00,480.00,VWS V14.01,2013-07-21 14:35:00,
2013-07-21 10:40:00,82.5,65.2,29.90,NE,47,0.0,0.0,56,0.00,,---,0.00,480.00,VWS V14.01,2013-07-21 14:40:00,
2013-07-21 10:45:00,83.9,63.3,29.90,East,94,0.0,0.0,50,0.00,,---,0.00,703.00,VWS V14.01,2013-07-21 14:45:00,
2013-07-21 10:50:00,82.1,62.2,29.90,East,87,0.0,0.0,51,0.00,,---,0.00,392.00,VWS V14.01,2013-07-21 14:50:00,
2013-07-21 10:55:00,82.4,62.5,29.90,ESE,106,0.0,0.0,51,0.00,,---,0.00,403.00,VWS V14.01,2013-07-21 14:55:00,
2013-07-21 11:00:00,83.8,62.6,29.90,ENE,62,0.0,0.0,49,0.00,,---,0.00,844.00,VWS V14.01,2013-07-21 15:00:00,
2013-07-21 11:05:00,85.2,63.3,29.91,South,169,0.0,0.0,48,0.00,,---,0.00,826.00,VWS V14.01,2013-07-21 15:05:00,
2013-07-21 11:10:00,83.4,62.3,29.91,ESE,112,0.0,0.0,49,0.00,,---,0.00,547.00,VWS V14.01,2013-07-21 15:10:00,
2013-07-21 11:15:00,83.8,62.6,29.91,NNE,20,0.0,0.0,49,0.00,,---,0.00,838.00,VWS V14.01,2013-07-21 15:15:00,
2013-07-21 11:20:00,85.4,62.3,29.91,SE,137,0.0,0.0,46,0.00,,---,0.00,821.00,VWS V14.01,2013-07-21 15:20:00,
2013-07-21 11:25:00,83.6,61.8,29.91,ENE,59,0.0,0.0,48,0.00,,---,0.00,828.00,VWS V14.01,2013-07-21 15:25:00,
2013-07-21 11:30:00,85.4,63.5,29.91,NNW,344,0.0,0.0,48,0.00,,---,0.00,809.00,VWS V14.01,2013-07-21 15:30:00,
2013-07-21 11:35:00,86.6,62.8,29.91,ESE,123,0.0,0.0,45,0.00,,---,0.00,826.00,VWS V14.01,2013-07-21 15:35:00,
2013-07-21 11:40:00,87.0,63.1,29.91,NE,47,0.0,0.0,45,0.00,,---,0.00,847.00,VWS V14.01,2013-07-21 15:40:00,
2013-07-21 11:45:00,85.7,63.8,29.91,ENE,73,0.0,0.0,48,0.00,,---,0.00,870.00,VWS V14.01,2013-07-21 15:45:00,
2013-07-21 11:50:00,85.3,63.4,29.91,NNW,344,0.0,0.0,48,0.00,,---,0.00,889.00,VWS V14.01,2013-07-21 15:50:00,
2013-07-21 11:55:00,86.4,62.6,29.91,ESE,113,0.0,0.0,45,0.00,,---,0.00,531.00,VWS V14.01,2013-07-21 15:55:00,
2013-07-21 12:00:00,85.1,62.0,29.91,East,100,0.0,0.0,46,0.00,,---,0.00,422.00,VWS V14.01,2013-07-21 16:00:00,
2013-07-21 12:05:00,84.1,62.9,29.92,East,98,0.0,0.0,49,0.00,,---,0.00,325.00,VWS V14.01,2013-07-21 16:05:00,
2013-07-21 12:10:00,86.1,63.5,29.92,NNE,31,0.0,0.0,47,0.00,,---,0.00,294.00,VWS V14.01,2013-07-21 16:10:00,
2013-07-21 12:15:00,85.6,63.7,29.92,North,11,0.0,0.0,48,0.00,,---,0.00,316.00,VWS V14.01,2013-07-21 16:15:00,
2013-07-21 12:20:00,86.0,64.6,29.91,ESE,105,0.0,0.0,49,0.00,,---,0.00,264.00,VWS V14.01,2013-07-21 16:20:00,
2013-07-21 12:25:00,85.8,64.4,29.91,NNE,13,0.0,0.0,49,0.00,,---,0.00,309.00,VWS V14.01,2013-07-21 16:25:00,
2013-07-21 12:30:00,86.1,62.9,29.91,East,99,0.0,0.0,46,0.00,,---,0.00,932.00,VWS V14.01,2013-07-21 16:30:00,
2013-07-21 12:35:00,85.3,63.4,29.91,NNE,24,0.0,0.0,48,0.00,,---,0.00,772.00,VWS V14.01,2013-07-21 16:35:00,
2013-07-21 12:40:00,87.0,63.1,29.91,East,100,0.0,0.0,45,0.00,,---,0.00,905.00,VWS V14.01,2013-07-21 16:40:00,
2013-07-21 12:45:00,87.3,63.4,29.91,NNE,18,0.0,0.0,45,0.00,,---,0.00,570.00,VWS V14.01,2013-07-21 16:45:00,
2013-07-21 12:50:00,86.3,61.2,29.91,ESE,108,0.0,0.0,43,0.00,,---,0.00,707.00,VWS V14.01,2013-07-21 16:50:00,
2013-07-21 12:55:00,85.3,61.6,29.91,ESE,112,0.0,0.0,45,0.00,,---,0.00,679.00,VWS V14.01,2013-07-21 16:55:00,
2013-07-21 13:00:00,86.1,61.7,29.91,ESE,113,0.0,0.0,44,0.00,,---,0.00,1081.00,VWS V14.01,2013-07-21 17:00:00,
2013-07-21 13:05:00,88.0,64.0,29.91,NNE,29,0.0,0.0,45,0.00,,---,0.00,1114.00,VWS V14.01,2013-07-21 17:05:00,
2013-07-21 13:10:00,90.2,63.3,29.91,NNW,338,0.0,0.0,41,0.00,,---,0.00,724.00,VWS V14.01,2013-07-21 17:10:00,
2013-07-21 13:15:00,90.2,63.3,29.91,NNE,19,0.0,0.0,41,0.00,,---,0.00,1153.00,VWS V14.01,2013-07-21 17:15:00,
2013-07-21 13:20:00,87.2,62.7,29.90,East,90,0.0,0.0,44,0.00,,---,0.00,905.00,VWS V14.01,2013-07-21 17:20:00,
2013-07-21 13:25:00,87.3,62.7,29.91,ESE,109,0.0,0.0,44,0.00,,---,0.00,1076.00,VWS V14.01,2013-07-21 17:25:00,
2013-07-21 13:30:00,87.5,63.6,29.90,SSW,198,0.0,0.0,45,0.00,,---,0.00,448.00,VWS V14.01,2013-07-21 17:30:00,
2013-07-21 13:35:00,87.1,62.6,29.90,SSE,157,0.0,0.0,44,0.00,,---,0.00,353.00,VWS V14.01,2013-07-21 17:35:00,
2013-07-21 13:40:00,85.4,61.7,29.91,SE,137,0.0,0.0,45,0.00,,---,0.00,411.00,VWS V14.01,2013-07-21 17:40:00,
2013-07-21 13:45:00,85.7,62.6,29.91,SE,134,0.0,0.0,46,0.00,,---,0.00,696.00,VWS V14.01,2013-07-21 17:45:00,
2013-07-21 13:50:00,87.5,64.8,29.91,NNE,22,0.0,0.0,47,0.00,,---,0.00,1021.00,VWS V14.01,2013-07-21 17:50:00,
2013-07-21 13:55:00,88.2,62.9,29.91,East,94,0.0,0.0,43,0.00,,---,0.00,582.00,VWS V14.01,2013-07-21 17:55:00,
2013-07-21 14:00:00,86.6,64.0,29.91,ESE,121,0.0,0.0,47,0.00,,---,0.00,306.00,VWS V14.01,2013-07-21 18:00:00,
2013-07-21 14:05:00,85.4,64.7,29.90,SE,140,0.0,0.0,50,0.00,,---,0.00,374.00,VWS V14.01,2013-07-21 18:05:00,
2013-07-21 14:10:00,85.6,63.7,29.90,ESE,111,0.0,0.0,48,0.00,,---,0.00,336.00,VWS V14.01,2013-07-21 18:10:00,
2013-07-21 14:15:00,85.5,64.2,29.90,NNE,12,0.0,0.0,49,0.00,,---,0.00,292.00,VWS V14.01,2013-07-21 18:15:00,
2013-07-21 14:20:00,86.1,64.1,29.90,SSE,147,0.0,0.0,48,0.00,,---,0.00,506.00,VWS V14.01,2013-07-21 18:20:00,
2013-07-21 14:25:00,85.7,66.1,29.90,SE,124,0.0,0.0,52,0.00,,---,0.00,687.00,VWS V14.01,2013-07-21 18:25:00,
2013-07-21 14:30:00,85.8,65.0,29.91,ESE,120,0.0,0.0,50,0.00,,---,0.00,272.00,VWS V14.01,2013-07-21 18:30:00,
2013-07-21 14:35:00,86.0,65.8,29.91,ESE,110,0.0,0.0,51,0.00,,---,0.00,292.00,VWS V14.01,2013-07-21 18:35:00,
2013-07-21 14:40:00,85.4,66.3,29.91,SE,137,0.0,0.0,53,0.00,,---,0.00,325.00,VWS V14.01,2013-07-21 18:40:00,
2013-07-21 14:45:00,85.0,65.4,29.90,East,82,0.0,0.0,52,0.00,,---,0.00,396.00,VWS V14.01,2013-07-21 18:45:00,
2013-07-21 14:50:00,85.8,66.7,29.90,East,101,0.0,0.0,53,0.00,,---,0.00,380.00,VWS V14.01,2013-07-21 18:50:00,
2013-07-21 14:55:00,85.5,65.9,29.90,ENE,74,0.0,0.0,52,0.00,,---,0.00,531.00,VWS V14.01,2013-07-21 18:55:00,
2013-07-21 15:00:00,85.4,66.3,29.91,East,98,0.0,0.0,53,0.00,,---,0.00,454.00,VWS V14.01,2013-07-21 19:00:00,
2013-07-21 15:05:00,85.7,67.2,29.91,SE,131,0.0,0.0,54,0.00,,---,0.00,390.00,VWS V14.01,2013-07-21 19:05:00,
2013-07-21 15:10:00,85.9,66.2,29.91,NE,56,0.0,0.0,52,0.00,,---,0.00,304.00,VWS V14.01,2013-07-21 19:10:00,
2013-07-21 15:15:00,85.6,67.1,29.91,WSW,253,0.0,0.0,54,0.00,,---,0.00,413.00,VWS V14.01,2013-07-21 19:15:00,
2013-07-21 15:20:00,86.2,67.6,29.91,SSW,200,0.0,0.0,54,0.00,,---,0.00,288.00,VWS V14.01,2013-07-21 19:20:00,
2013-07-21 15:25:00,85.9,67.3,29.91,SE,144,0.0,0.0,54,0.00,,---,0.00,341.00,VWS V14.01,2013-07-21 19:25:00,
2013-07-21 15:30:00,85.4,66.9,29.90,SE,146,0.0,0.0,54,0.00,,---,0.00,506.00,VWS V14.01,2013-07-21 19:30:00,
2013-07-21 15:35:00,85.1,66.6,29.90,East,100,0.0,0.0,54,0.00,,---,0.00,543.00,VWS V14.01,2013-07-21 19:35:00,
2013-07-21 15:40:00,85.8,67.2,29.90,SE,132,0.0,0.0,54,0.00,,---,0.00,452.00,VWS V14.01,2013-07-21 19:40:00,
2013-07-21 15:45:00,85.6,67.6,29.90,SSE,158,0.0,0.0,55,0.00,,---,0.00,726.00,VWS V14.01,2013-07-21 19:45:00,
2013-07-21 15:50:00,85.2,66.7,29.90,SE,142,0.0,0.0,54,0.00,,---,0.00,519.00,VWS V14.01,2013-07-21 19:50:00,
2013-07-21 15:55:00,85.2,66.7,29.90,SE,136,0.0,0.0,54,0.00,,---,0.00,399.00,VWS V14.01,2013-07-21 19:55:00,
2013-07-21 16:00:00,85.4,66.9,29.89,ESE,112,0.0,0.0,54,0.00,,---,0.00,708.00,VWS V14.01,2013-07-21 20:00:00,
2013-07-21 16:05:00,85.9,67.3,29.89,East,94,0.0,0.0,54,0.00,,---,0.00,788.00,VWS V14.01,2013-07-21 20:05:00,
2013-07-21 16:10:00,85.7,66.6,29.89,East,90,0.0,0.0,53,0.00,,---,0.00,679.00,VWS V14.01,2013-07-21 20:10:00,
2013-07-21 16:15:00,84.9,65.9,29.90,ESE,111,0.0,0.0,53,0.00,,---,0.00,701.00,VWS V14.01,2013-07-21 20:15:00,
2013-07-21 16:20:00,85.9,67.3,29.89,SSE,157,0.0,0.0,54,0.00,,---,0.00,659.00,VWS V14.01,2013-07-21 20:20:00,
2013-07-21 16:25:00,85.8,66.7,29.89,SE,128,0.0,0.0,53,0.00,,---,0.00,316.00,VWS V14.01,2013-07-21 20:25:00,
2013-07-21 16:30:00,85.5,65.9,29.89,East,86,0.0,0.0,52,0.00,,---,0.00,722.00,VWS V14.01,2013-07-21 20:30:00,
2013-07-21 16:35:00,85.3,66.2,29.89,SE,146,0.0,0.0,53,0.00,,---,0.00,661.00,VWS V14.01,2013-07-21 20:35:00,
2013-07-21 16:40:00,85.3,66.2,29.89,SE,134,0.0,0.0,53,0.00,,---,0.00,640.00,VWS V14.01,2013-07-21 20:40:00,
2013-07-21 16:45:00,85.6,66.5,29.89,East,92,0.0,0.0,53,0.00,,---,0.00,269.00,VWS V14.01,2013-07-21 20:45:00,
2013-07-21 16:50:00,85.1,65.5,29.89,ESE,120,0.0,0.0,52,0.00,,---,0.00,169.00,VWS V14.01,2013-07-21 20:50:00,
2013-07-21 16:55:00,84.4,65.4,29.89,ESE,116,0.0,0.0,53,0.00,,---,0.00,276.00,VWS V14.01,2013-07-21 20:55:00,
2013-07-21 17:00:00,84.7,66.2,29.88,East,94,0.0,0.0,54,0.00,,---,0.00,258.00,VWS V14.01,2013-07-21 21:00:00,
2013-07-21 17:05:00,84.7,66.2,29.88,SSE,164,0.0,0.0,54,0.00,,---,0.00,237.00,VWS V14.01,2013-07-21 21:05:00,
2013-07-21 17:10:00,84.4,65.4,29.88,ESE,112,0.0,0.0,53,0.00,,---,0.00,234.00,VWS V14.01,2013-07-21 21:10:00,
2013-07-21 17:15:00,84.5,66.1,29.88,South,177,0.0,0.0,54,0.00,,---,0.00,250.00,VWS V14.01,2013-07-21 21:15:00,
2013-07-21 17:20:00,84.4,67.5,29.88,SSE,168,0.0,0.0,57,0.00,,---,0.00,299.00,VWS V14.01,2013-07-21 21:20:00,
2013-07-21 17:25:00,84.3,66.9,29.88,ESE,113,0.0,0.0,56,0.00,,---,0.00,299.00,VWS V14.01,2013-07-21 21:25:00,
2013-07-21 17:30:00,84.2,66.8,29.88,South,186,0.0,0.0,56,0.00,,---,0.00,206.00,VWS V14.01,2013-07-21 21:30:00,
2013-07-21 17:35:00,84.3,67.4,29.89,SSE,159,0.0,0.0,57,0.00,,---,0.00,213.00,VWS V14.01,2013-07-21 21:35:00,
2013-07-21 17:40:00,83.9,67.1,29.89,SSE,168,0.0,0.0,57,0.00,,---,0.00,230.00,VWS V14.01,2013-07-21 21:40:00,
2013-07-21 17:45:00,83.6,66.8,29.89,WSW,237,0.0,0.0,57,0.00,,---,0.00,174.00,VWS V14.01,2013-07-21 21:45:00,
2013-07-21 17:50:00,82.9,66.6,29.89,NE,36,0.0,0.0,58,0.00,,---,0.00,209.00,VWS V14.01,2013-07-21 21:50:00,
2013-07-21 17:55:00,82.5,66.7,29.89,SSW,207,0.0,0.0,59,0.00,,---,0.00,181.00,VWS V14.01,2013-07-21 21:55:00,
2013-07-21 18:00:00,82.3,66.6,29.89,SSE,168,0.0,0.0,59,0.00,,---,0.00,179.00,VWS V14.01,2013-07-21 22:00:00,
2013-07-21 18:05:00,82.0,66.3,29.89,SE,132,0.0,0.0,59,0.00,,---,0.00,350.00,VWS V14.01,2013-07-21 22:05:00,
2013-07-21 18:10:00,82.1,66.4,29.89,SSE,148,0.0,0.0,59,0.00,,---,0.00,207.00,VWS V14.01,2013-07-21 22:10:00,
2013-07-21 18:15:00,82.0,66.3,29.89,SSW,211,0.0,0.0,59,0.00,,---,0.00,165.00,VWS V14.01,2013-07-21 22:15:00,
2013-07-21 18:20:00,82.4,66.7,29.89,South,185,0.0,0.0,59,0.00,,---,0.00,199.00,VWS V14.01,2013-07-21 22:20:00,
2013-07-21 18:25:00,82.0,67.2,29.90,South,183,0.0,0.0,61,0.00,,---,0.00,153.00,VWS V14.01,2013-07-21 22:25:00,
2013-07-21 18:30:00,81.8,66.6,29.89,SSE,155,0.0,0.0,60,0.00,,---,0.00,141.00,VWS V14.01,2013-07-21 22:30:00,
2013-07-21 18:35:00,81.8,65.6,29.89,South,187,0.0,0.0,58,0.00,,---,0.00,105.00,VWS V14.01,2013-07-21 22:35:00,
2013-07-21 18:40:00,81.3,65.1,29.90,WSW,246,0.0,0.0,58,0.00,,---,0.00,109.00,VWS V14.01,2013-07-21 22:40:00,
2013-07-21 18:45:00,81.5,64.8,29.89,SSW,203,0.0,0.0,57,0.00,,---,0.00,105.00,VWS V14.01,2013-07-21 22:45:00,
2013-07-21 18:50:00,81.1,63.9,29.90,SSE,147,0.0,0.0,56,0.00,,---,0.00,91.00,VWS V14.01,2013-07-21 22:50:00,
2013-07-21 18:55:00,81.0,64.3,29.90,SSE,155,0.0,0.0,57,0.00,,---,0.00,83.00,VWS V14.01,2013-07-21 22:55:00,
2013-07-21 19:00:00,81.1,64.4,29.90,SSW,201,0.0,0.0,57,0.00,,---,0.00,81.00,VWS V14.01,2013-07-21 23:00:00,
2013-07-21 19:05:00,81.2,64.0,29.90,SE,130,0.0,0.0,56,0.00,,---,0.00,81.00,VWS V14.01,2013-07-21 23:05:00,
2013-07-21 19:10:00,81.1,64.4,29.90,SW,217,0.0,0.0,57,0.00,,---,0.00,67.00,VWS V14.01,2013-07-21 23:10:00,
2013-07-21 19:15:00,80.8,64.7,29.90,South,184,0.0,0.0,58,0.00,,---,0.00,56.00,VWS V14.01,2013-07-21 23:15:00,
2013-07-21 19:20:00,80.6,64.5,29.90,SSE,163,0.0,0.0,58,0.00,,---,0.00,51.00,VWS V14.01,2013-07-21 23:20:00,
2013-07-21 19:25:00,80.2,64.1,29.90,SSW,199,0.0,0.0,58,0.00,,---,0.00,42.00,VWS V14.01,2013-07-21 23:25:00,
2013-07-21 19:30:00,80.2,64.1,29.90,South,183,0.0,0.0,58,0.00,,---,0.00,30.00,VWS V14.01,2013-07-21 23:30:00,
2013-07-21 19:35:00,80.3,63.2,29.90,ESE,119,0.0,0.0,56,0.00,,---,0.00,25.00,VWS V14.01,2013-07-21 23:35:00,
2013-07-21 19:40:00,80.3,63.2,29.90,SE,134,0.0,0.0,56,0.00,,---,0.00,23.00,VWS V14.01,2013-07-21 23:40:00,
2013-07-21 19:45:00,80.3,63.2,29.90,East,98,0.0,0.0,56,0.00,,---,0.00,19.00,VWS V14.01,2013-07-21 23:45:00,
2013-07-21 19:50:00,80.4,63.3,29.90,ESE,118,0.0,0.0,56,0.00,,---,0.00,18.00,VWS V14.01,2013-07-21 23:50:00,
2013-07-21 19:55:00,80.3,63.7,29.90,ESE,114,0.0,0.0,57,0.00,,---,0.00,18.00,VWS V14.01,2013-07-21 23:55:00,
2013-07-21 20:00:00,80.2,63.6,29.90,SE,132,0.0,0.0,57,0.00,,---,0.00,14.00,VWS V14.01,2013-07-22 00:00:00,
2013-07-21 20:05:00,80.2,63.6,29.90,SE,144,0.0,0.0,57,0.00,,---,0.00,11.00,VWS V14.01,2013-07-22 00:05:00,
2013-07-21 20:10:00,80.1,64.0,29.90,SE,143,0.0,0.0,58,0.00,,---,0.00,7.00,VWS V14.01,2013-07-22 00:10:00,
2013-07-21 20:15:00,79.9,63.8,29.90,SSE,167,0.0,0.0,58,0.00,,---,0.00,0.00,VWS V14.01,2013-07-22 00:15:00,
2013-07-21 20:20:00,80.1,64.5,29.91,South,173,0.0,0.0,59,0.00,,---,0.00,0.00,VWS V14.01,2013-07-22 00:20:00,
2013-07-21 20:25:00,80.1,64.5,29.91,South,173,0.0,0.0,59,0.00,,---,0.00,0.00,VWS V14.01,2013-07-22 00:25:00,
2013-07-21 20:30:00,79.6,64.0,29.91,South,173,0.0,0.0,59,0.00,,---,0.00,0.00,VWS V14.01,2013-07-22 00:30:00,
2013-07-21 20:35:00,79.3,64.2,29.91,South,174,0.0,0.0,60,0.00,,---,0.00,0.00,VWS V14.01,2013-07-22 00:35:00,
2013-07-21 20:40:00,79.3,64.2,29.91,SSE,167,0.0,0.0,60,0.00,,---,0.00,0.00,VWS V14.01,2013-07-22 00:40:00,
2013-07-21 20:45:00,79.1,64.0,29.92,SSE,167,0.0,0.0,60,0.00,,---,0.00,0.00,VWS V14.01,2013-07-22 00:45:00,
2013-07-21 20:50:00,79.0,64.4,29.92,SSE,167,0.0,0.0,61,0.00,,---,0.00,0.00,VWS V14.01,2013-07-22 00:50:00,
2013-07-21 20:55:00,79.1,64.5,29.92,SSE,167,0.0,0.0,61,0.00,,---,0.00,0.00,VWS V14.01,2013-07-22 00:55:00,
2013-07-21 21:00:00,79.0,64.4,29.93,SSE,163,0.0,0.0,61,0.00,,---,0.00,0.00,VWS V14.01,2013-07-22 01:00:00,
2013-07-21 21:05:00,78.8,64.7,29.92,SSE,161,0.0,0.0,62,0.00,,---,0.00,0.00,VWS V14.01,2013-07-22 01:05:00,
2013-07-21 21:10:00,78.5,64.4,29.93,SSE,161,0.0,0.0,62,0.00,,---,0.00,0.00,VWS V14.01,2013-07-22 01:10:00,
2013-07-21 21:15:00,78.4,64.3,29.92,SSE,161,0.0,0.0,62,0.00,,---,0.00,0.00,VWS V14.01,2013-07-22 01:15:00,
2013-07-21 21:20:00,78.6,64.5,29.93,SSE,161,0.0,0.0,62,0.00,,---,0.00,0.00,VWS V14.01,2013-07-22 01:20:00,
2013-07-21 21:25:00,79.1,64.5,29.93,SSE,160,0.0,0.0,61,0.00,,---,0.00,0.00,VWS V14.01,2013-07-22 01:25:00,
2013-07-21 21:30:00,79.3,64.7,29.93,SSE,148,0.0,0.0,61,0.00,,---,0.00,0.00,VWS V14.01,2013-07-22 01:30:00,
2013-07-21 21:35:00,78.9,64.3,29.93,SE,131,0.0,0.0,61,0.00,,---,0.00,0.00,VWS V14.01,2013-07-22 01:35:00,
2013-07-21 21:40:00,78.8,64.7,29.93,ESE,119,0.0,0.0,62,0.00,,---,0.00,0.00,VWS V14.01,2013-07-22 01:40:00,
2013-07-21 21:45:00,79.1,65.0,29.93,ESE,119,0.0,0.0,62,0.00,,---,0.00,0.00,VWS V14.01,2013-07-22 01:45:00,
2013-07-21 21:50:00,78.7,64.6,29.93,ESE,119,0.0,0.0,62,0.00,,---,0.00,0.00,VWS V14.01,2013-07-22 01:50:00,
2013-07-21 21:55:00,78.5,64.9,29.93,ESE,118,0.0,0.0,63,0.00,,---,0.00,0.00,VWS V14.01,2013-07-22 01:55:00,
2013-07-21 22:00:00,78.7,65.1,29.93,ESE,118,0.0,0.0,63,0.00,,---,0.00,0.00,VWS V14.01,2013-07-22 02:00:00,
2013-07-21 22:05:00,79.6,65.4,29.93,ESE,118,0.0,0.0,62,0.00,,---,0.00,0.00,VWS V14.01,2013-07-22 02:05:00,
2013-07-21 22:10:00,79.0,65.3,29.93,ESE,113,0.0,0.0,63,0.00,,---,0.00,0.00,VWS V14.01,2013-07-22 02:10:00,
2013-07-21 22:15:00,78.5,65.3,29.93,East,82,0.0,0.0,64,0.00,,---,0.00,0.00,VWS V14.01,2013-07-22 02:15:00,
2013-07-21 22:20:00,78.5,65.8,29.93,East,82,0.0,0.0,65,0.00,,---,0.00,0.00,VWS V14.01,2013-07-22 02:20:00,
2013-07-21 22:25:00,78.5,65.3,29.93,East,82,0.0,0.0,64,0.00,,---,0.00,0.00,VWS V14.01,2013-07-22 02:25:00,
2013-07-21 22:30:00,78.1,65.4,29.93,East,82,0.0,0.0,65,0.00,,---,0.00,0.00,VWS V14.01,2013-07-22 02:30:00,
2013-07-21 22:35:00,77.9,65.2,29.94,East,82,0.0,0.0,65,0.00,,---,0.00,0.00,VWS V14.01,2013-07-22 02:35:00,
2013-07-21 22:40:00,78.4,65.7,29.94,East,82,0.0,0.0,65,0.00,,---,0.00,0.00,VWS V14.01,2013-07-22 02:40:00,
2013-07-21 22:45:00,78.3,65.6,29.94,East,82,0.0,0.0,65,0.00,,---,0.00,0.00,VWS V14.01,2013-07-22 02:45:00,
2013-07-21 22:50:00,78.2,65.5,29.93,East,82,0.0,0.0,65,0.00,,---,0.00,0.00,VWS V14.01,2013-07-22 02:50:00,
2013-07-21 22:55:00,77.7,65.9,29.93,East,82,0.0,0.0,67,0.00,,---,0.00,0.00,VWS V14.01,2013-07-22 02:55:00,
2013-07-21 23:00:00,77.6,65.8,29.93,NE,55,0.0,0.0,67,0.00,,---,0.00,0.00,VWS V14.01,2013-07-22 03:00:00,
2013-07-21 23:05:00,77.2,65.4,29.93,NE,54,0.0,0.0,67,0.00,,---,0.00,0.00,VWS V14.01,2013-07-22 03:05:00,
2013-07-21 23:10:00,77.2,65.8,29.93,NE,54,0.0,0.0,68,0.00,,---,0.00,0.00,VWS V14.01,2013-07-22 03:10:00,
2013-07-21 23:15:00,77.1,65.3,29.93,NE,53,0.0,0.0,67,0.00,,---,0.00,0.00,VWS V14.01,2013-07-22 03:15:00,
2013-07-21 23:20:00,77.2,65.8,29.93,NE,52,0.0,0.0,68,0.00,,---,0.00,0.00,VWS V14.01,2013-07-22 03:20:00,
2013-07-21 23:25:00,76.9,65.5,29.93,NE,52,0.0,0.0,68,0.00,,---,0.00,0.00,VWS V14.01,2013-07-22 03:25:00,
2013-07-21 23:30:00,76.7,65.3,29.93,NE,52,0.0,0.0,68,0.00,,---,0.00,0.00,VWS V14.01,2013-07-22 03:30:00,
2013-07-21 23:35:00,76.3,65.4,29.93,NE,52,0.0,0.0,69,0.00,,---,0.00,0.00,VWS V14.01,2013-07-22 03:35:00,
2013-07-21 23:40:00,76.8,65.9,29.93,NE,52,0.0,0.0,69,0.00,,---,0.00,0.00,VWS V14.01,2013-07-22 03:40:00,
2013-07-21 23:45:00,76.7,65.8,29.93,North,355,0.0,0.0,69,0.00,,---,0.00,0.00,VWS V14.01,2013-07-22 03:45:00,
2013-07-21 23:50:00,76.4,65.9,29.93,North,355,0.0,0.0,70,0.00,,---,0.00,0.00,VWS V14.01,2013-07-22 03:50:00,
2013-07-21 23:55:00,76.5,66.0,29.93,North,351,0.0,0.0,70,0.00,,---,0.00,0.00,VWS V14.01,2013-07-22 03:55:00,